Location: Praha
(50.0830°N, 14.4670°E)
Time: 02:51:43
(UTC+02:00)

ISS - Pass Details

Date: 15 May 2024
Orbit: 409 x 414 km, 51.6° (Epoch: 23 May)

Event Time Altitude Azimuth Distance (km) Brightness Sun altitude
Rises 01:08:12 0° 287° (WNW) 2,349 0.2 -21.0°
Reaches altitude 10° 01:10:18 10° 285° (WNW) 1,484 -0.9 -20.9°
Enters shadow 01:11:39 22° 281° (WNW) 953 -1.9 -20.9°
